When you browse on this site, cookies collect data to enhance your experience and personalize the content and advertising you see.
Visit our Privacy Policy to learn more. By continuing to use the site, you agree to this use of cookies and data.
  • In Austria
  • List of Countries
  • For 7 days
  • Water Temperature
  • Weather Map
  • News
  • Weather Widgets
  • user-avatar
    Login

    Hourly Weather Mokrovo

    Today, 21 October, Monday

    Time Temperature Precipitation Wind Pressure Humidity
    00:00 +14°C° 0 mm 2 mps 752 mmHg 82%
    01:00 +14°C° 0 mm 2 mps 753 mmHg 83%
    02:00 +12°C° 0 mm 3 mps 753 mmHg 83%
    03:00 +12°C° 0 mm 3 mps 753 mmHg 83%
    04:00 +13°C° 0 mm 2 mps 752 mmHg 84%
    05:00 +13°C° 0 mm 2 mps 752 mmHg 84%
    06:00 +13°C° 0 mm 2 mps 753 mmHg 83%
    07:00 +13°C° 0 mm 2 mps 753 mmHg 81%
    08:00 +14°C° 0 mm 2 mps 753 mmHg 79%
    09:00 +16°C° 0 mm 2 mps 753 mmHg 72%
    10:00 +17°C° 0 mm 2 mps 753 mmHg 66%
    11:00 +19°C° 0 mm 2 mps 753 mmHg 59%
    12:00 +20°C° 0 mm 2 mps 753 mmHg 57%
    13:00 +21°C° 0 mm 2 mps 753 mmHg 55%
    14:00 +21°C° 0 mm 2 mps 753 mmHg 54%
    15:00 +20°C° 0 mm 2 mps 753 mmHg 59%
    16:00 +19°C° 0 mm 1 mps 753 mmHg 65%
    17:00 +18°C° 0 mm 1 mps 753 mmHg 71%
    18:00 +16°C° 0 mm 1 mps 753 mmHg 73%
    19:00 +15°C° 0 mm 0 mps 753 mmHg 76%
    20:00 +14°C° 0 mm 0 mps 754 mmHg 79%
    21:00 +14°C° 0 mm 0 mps 754 mmHg 81%
    22:00 +13°C° 0 mm 0 mps 754 mmHg 83%
    23:00 +13°C° 0 mm 0 mps 754 mmHg 84%

    Tomorrow, 22 October, Tuesday

    Time Temperature Precipitation Wind Pressure Humidity
    00:00 +13°C° 0 mm 0 mps 754 mmHg 85%
    01:00 +12°C° 0 mm 0 mps 754 mmHg 86%
    02:00 +12°C° 0 mm 0 mps 755 mmHg 87%
    03:00 +12°C° 0 mm 0 mps 755 mmHg 87%
    04:00 +12°C° 0 mm 0 mps 755 mmHg 88%
    05:00 +11°C° 0 mm 0 mps 755 mmHg 88%
    06:00 +12°C° 0 mm 0 mps 755 mmHg 87%
    07:00 +12°C° 0 mm 0 mps 755 mmHg 86%
    08:00 +12°C° 0 mm 0 mps 755 mmHg 85%
    09:00 +14°C° 0 mm 0 mps 755 mmHg 79%
    10:00 +16°C° 0 mm 1 mps 755 mmHg 73%
    11:00 +19°C° 0 mm 1 mps 755 mmHg 67%
    12:00 +20°C° 0 mm 1 mps 755 mmHg 64%
    13:00 +20°C° 0 mm 1 mps 755 mmHg 62%
    14:00 +21°C° 0 mm 1 mps 755 mmHg 59%
    15:00 +18°C° 0 mm 0 mps 755 mmHg 65%
    16:00 +16°C° 0 mm 0 mps 754 mmHg 71%
    17:00 +15°C° 0 mm 0 mps 754 mmHg 78%
    18:00 +14°C° 0 mm 0 mps 754 mmHg 80%
    19:00 +14°C° 0 mm 0 mps 754 mmHg 81%
    20:00 +13°C° 0 mm 0 mps 755 mmHg 83%
    21:00 +14°C° 0 mm 1 mps 754 mmHg 85%
    22:00 +14°C° 0 mm 1 mps 754 mmHg 86%
    23:00 +13°C° 0 mm 1 mps 754 mmHg 87%

    Day after tomorrow, 23 October, Wednesday

    Time Temperature Precipitation Wind Pressure Humidity
    00:00 +13°C° 0 mm 1 mps 754 mmHg 88%
    01:00 +13°C° 0 mm 1 mps 754 mmHg 89%
    02:00 +13°C° 0 mm 1 mps 754 mmHg 90%
    03:00 +13°C° 0 mm 1 mps 754 mmHg 90%
    04:00 +12°C° 0 mm 1 mps 753 mmHg 91%
    05:00 +12°C° 0 mm 1 mps 753 mmHg 91%
    06:00 +12°C° 0 mm 1 mps 753 mmHg 91%
    07:00 +12°C° 0 mm 1 mps 753 mmHg 91%
    08:00 +12°C° 0 mm 1 mps 753 mmHg 90%
    09:00 +14°C° 0 mm 1 mps 753 mmHg 85%
    10:00 +15°C° 0 mm 1 mps 753 mmHg 79%
    11:00 +16°C° 0 mm 1 mps 753 mmHg 73%
    12:00 +17°C° 0 mm 2 mps 753 mmHg 70%
    13:00 +18°C° 0 mm 2 mps 753 mmHg 67%
    14:00 +19°C° 0 mm 2 mps 753 mmHg 64%
    15:00 +18°C° 0 mm 2 mps 753 mmHg 69%
    16:00 +17°C° 0 mm 2 mps 753 mmHg 75%
    17:00 +15°C° 0 mm 2 mps 753 mmHg 81%
    18:00 +15°C° 0 mm 2 mps 753 mmHg 85%
    19:00 +14°C° 0 mm 2 mps 753 mmHg 89%
    20:00 +13°C° 0 mm 2 mps 754 mmHg 93%
    21:00 +13°C° 0 mm 2 mps 754 mmHg 93%
    22:00 +12°C° 0 mm 2 mps 754 mmHg 94%
    23:00 +10°C° 0 mm 2 mps 754 mmHg 95%

    24 October, Thursday

    Time Temperature Precipitation Wind Pressure Humidity
    00:00 +10°C° 0 mm 2 mps 754 mmHg 95%
    01:00 +9°C° 0 mm 2 mps 754 mmHg 95%
    02:00 +9°C° 0 mm 2 mps 754 mmHg 95%
    03:00 +8°C° 0 mm 2 mps 754 mmHg 95%
    04:00 +9°C° 0 mm 1 mps 754 mmHg 95%
    05:00 +9°C° 0 mm 1 mps 754 mmHg 95%
    06:00 +9°C° 0 mm 1 mps 754 mmHg 94%
    07:00 +9°C° 0 mm 1 mps 754 mmHg 94%
    08:00 +8°C° 0 mm 2 mps 754 mmHg 94%
    09:00 +10°C° 0 mm 2 mps 754 mmHg 87%
    10:00 +12°C° 0 mm 2 mps 754 mmHg 80%
    11:00 +14°C° 0 mm 2 mps 754 mmHg 73%
    12:00 +15°C° 0 mm 2 mps 754 mmHg 70%
    13:00 +16°C° 0 mm 2 mps 754 mmHg 66%
    14:00 +17°C° 0 mm 2 mps 754 mmHg 62%
    15:00 +16°C° 0 mm 2 mps 754 mmHg 67%
    16:00 +14°C° 0 mm 2 mps 754 mmHg 72%
    17:00 +13°C° 0 mm 2 mps 753 mmHg 77%
    18:00 +13°C° 0 mm 2 mps 754 mmHg 79%
    19:00 +12°C° 0 mm 2 mps 754 mmHg 81%
    20:00 +10°C° 0 mm 3 mps 754 mmHg 83%
    21:00 +10°C° 0 mm 3 mps 754 mmHg 85%
    22:00 +10°C° 0 mm 3 mps 754 mmHg 87%
    23:00 +10°C° 0 mm 3 mps 754 mmHg 89%

    25 October, Friday

    Time Temperature Precipitation Wind Pressure Humidity
    00:00 +9°C° 0 mm 3 mps 754 mmHg 90%
    01:00 +9°C° 0 mm 3 mps 754 mmHg 92%
    02:00 +9°C° 0 mm 3 mps 754 mmHg 94%
    03:00 +9°C° 0 mm 3 mps 754 mmHg 94%
    04:00 +9°C° 0 mm 3 mps 754 mmHg 95%
    05:00 +9°C° 0 mm 3 mps 753 mmHg 95%
    06:00 +9°C° 0 mm 3 mps 754 mmHg 95%
    07:00 +10°C° 0 mm 3 mps 754 mmHg 94%
    08:00 +10°C° 0 mm 3 mps 754 mmHg 94%
    09:00 +12°C° 0 mm 3 mps 754 mmHg 87%
    10:00 +14°C° 0 mm 3 mps 754 mmHg 79%
    11:00 +16°C° 0 mm 3 mps 754 mmHg 72%
    12:00 +18°C° 0 mm 3 mps 754 mmHg 68%
    13:00 +19°C° 0 mm 3 mps 753 mmHg 64%
    14:00 +20°C° 0 mm 3 mps 753 mmHg 60%
    15:00 +18°C° 0 mm 3 mps 753 mmHg 66%
    16:00 +17°C° 0 mm 2 mps 753 mmHg 71%
    17:00 +15°C° 0 mm 2 mps 753 mmHg 76%
    18:00 +15°C° 0 mm 2 mps 753 mmHg 78%
    19:00 +14°C° 0 mm 2 mps 753 mmHg 80%
    20:00 +13°C° 0 mm 2 mps 753 mmHg 82%
    21:00 +13°C° 0 mm 2 mps 754 mmHg 84%
    22:00 +12°C° 0 mm 2 mps 754 mmHg 86%
    23:00 +12°C° 0 mm 2 mps 754 mmHg 88%

    26 October, Saturday

    Time Temperature Precipitation Wind Pressure Humidity
    00:00 +12°C° 0 mm 2 mps 754 mmHg 90%
    01:00 +10°C° 0 mm 2 mps 754 mmHg 91%
    02:00 +10°C° 0 mm 2 mps 754 mmHg 93%
    03:00 +10°C° 0 mm 2 mps 755 mmHg 94%
    04:00 +10°C° 0 mm 2 mps 755 mmHg 94%
    05:00 +10°C° 0 mm 2 mps 755 mmHg 95%
    06:00 +11°C° 0 mm 1 mps 755 mmHg 95%
    07:00 +11°C° 0 mm 1 mps 755 mmHg 95%
    08:00 +11°C° 0 mm 1 mps 755 mmHg 95%
    09:00 +13°C° 0 mm 1 mps 756 mmHg 86%
    10:00 +14°C° 0 mm 1 mps 756 mmHg 78%
    11:00 +16°C° 0 mm 1 mps 756 mmHg 69%
    12:00 +16°C° 0 mm 1 mps 756 mmHg 67%
    13:00 +18°C° 0 mm 1 mps 756 mmHg 65%
    14:00 +19°C° 0 mm 1 mps 756 mmHg 63%
    15:00 +16°C° 0 mm 1 mps 755 mmHg 68%
    16:00 +14°C° 0 mm 0 mps 755 mmHg 74%
    17:00 +13°C° 0 mm 0 mps 755 mmHg 79%
    18:00 +13°C° 0 mm 1 mps 754 mmHg 82%
    19:00 +13°C° 0 mm 1 mps 754 mmHg 84%
    20:00 +12°C° 0 mm 1 mps 754 mmHg 86%
    21:00 +12°C° 0 mm 1 mps 754 mmHg 87%
    22:00 +12°C° 0 mm 2 mps 754 mmHg 89%
    23:00 +12°C° 0 mm 2 mps 754 mmHg 90%

    27 October, Sunday

    Time Temperature Precipitation Wind Pressure Humidity
    00:00 +10°C° 0 mm 2 mps 754 mmHg 91%
    01:00 +10°C° 0 mm 2 mps 753 mmHg 92%
    02:00 +10°C° 0 mm 2 mps 753 mmHg 93%
    03:00 +10°C° 0 mm 3 mps 753 mmHg 94%
    04:00 +10°C° 0 mm 3 mps 752 mmHg 94%
    05:00 +10°C° 0 mm 3 mps 752 mmHg 94%
    06:00 +10°C° 0 mm 3 mps 752 mmHg 94%
    07:00 +10°C° 0 mm 3 mps 752 mmHg 93%
    08:00 +10°C° 0 mm 3 mps 752 mmHg 93%
    09:00 +11°C° 0 mm 3 mps 752 mmHg 85%
    10:00 +13°C° 0 mm 3 mps 751 mmHg 78%
    11:00 +16°C° 0 mm 3 mps 751 mmHg 70%
    12:00 +15°C° 0 mm 4 mps 751 mmHg 68%
    13:00 +17°C° 0 mm 4 mps 751 mmHg 66%
    14:00 +18°C° 0 mm 4 mps 750 mmHg 64%
    15:00 +17°C° 0 mm 4 mps 750 mmHg 70%
    16:00 +16°C° 0 mm 3 mps 750 mmHg 76%
    17:00 +13°C° 0 mm 3 mps 750 mmHg 82%
    18:00 +13°C° 0 mm 3 mps 750 mmHg 84%
    19:00 +12°C° 0 mm 3 mps 750 mmHg 85%
    20:00 +12°C° 0 mm 3 mps 750 mmHg 87%
    21:00 +12°C° 0 mm 3 mps 750 mmHg 87%
    22:00 +11°C° 0 mm 3 mps 750 mmHg 87%
    23:00 +11°C° 0 mm 3 mps 750 mmHg 87%
    Show more